This is the latest recevied weather packets stored in our database for station/object K4MZ. If no packets are shown the sender has not sent any weather packets the latest 10 day(s).
| Time | Temp. | Humidity | Pressure | Rain* | Wind** | Luminosity | Snow |
|---|---|---|---|---|---|---|---|
| 1778190331 | 13.33° C | 89% | 1010.7 hPa | 0 mm | - | 162 W/m² | - |
| 1778189771 | 12.78° C | 90% | 1010.5 hPa | 0 mm | - | 117 W/m² | - |
| 1778189151 | 12.78° C | 90% | 1010.4 hPa | 0 mm | - | 95 W/m² | - |
| 1778188516 | 12.78° C | 90% | 1010.4 hPa | 0 mm | - | 115 W/m² | - |
| 1778187997 | 12.78° C | 91% | 1010.4 hPa | 0 mm | - | 140 W/m² | - |
| 1778187352 | 12.78° C | 91% | 1010.3 hPa | 0 mm | - | 130 W/m² | - |
| 1778186732 | 12.22° C | 92% | 1010.2 hPa | 0 mm | - | 163 W/m² | - |
| 1778186192 | 12.22° C | 92% | 1010.3 hPa | 0 mm | - | 200 W/m² | - |
| 1778185517 | 12.22° C | 92% | 1010.6 hPa | 0 mm | - | 106 W/m² | - |
| 1778184937 | 12.22° C | 92% | 1010.8 hPa | 0 mm | - | 75 W/m² | - |
| 1778184338 | 12.22° C | 91% | 1010.6 hPa | 0 mm | - | 71 W/m² | - |
| 1778183173 | 12.78° C | 91% | 1011 hPa | 0 mm | - | 129 W/m² | - |
| 1778182518 | 12.78° C | 92% | 1011 hPa | 0 mm | - | 107 W/m² | - |
| 1778182019 | 12.78° C | 92% | 1010.8 hPa | 0 mm | - | 162 W/m² | - |
| 1778181318 | 12.78° C | 92% | 1011 hPa | 0 mm | - | 170 W/m² | - |
| 1778180718 | 12.78° C | 92% | 1011 hPa | 0 mm | - | 188 W/m² | - |
| 1778180117 | 12.22° C | 91% | 1010.9 hPa | 0 mm | - | 181 W/m² | - |
| 1778179517 | 12.78° C | 91% | 1011 hPa | 0 mm | - | 181 W/m² | - |
| 1778178937 | 12.78° C | 91% | 1011.1 hPa | 0 mm | - | 166 W/m² | - |
| 1778178339 | 12.78° C | 91% | 1011 hPa | 0 mm | - | 235 W/m² | - |
| 1778177718 | 12.78° C | 91% | 1011.2 hPa | 0 mm | - | 172 W/m² | - |
| 1778177138 | 12.78° C | 91% | 1011.1 hPa | 0 mm | - | 166 W/m² | - |
| 1778176520 | 12.78° C | 91% | 1011.1 hPa | 0 mm | - | 105 W/m² | - |
| 1778175939 | 12.22° C | 92% | 1011 hPa | 0 mm | - | 123 W/m² | - |
| 1778175318 | 12.78° C | 92% | 1010.9 hPa | 0 mm | - | 193 W/m² | - |
* Rain latest hour (hover to see other rain measurements)
** Current wind speed in m/s (hover to see current wind gust speed)